Location: Vale
(35.4830°N, 81.3830°W)
Time: 02:23:45
(UTC-04:00)

Amateur Radio Satellites - All Passes

Search period start: 23 March 2017 01:53
Search period end: 24 March 2017 01:53
Location: Vale, 35.4830°N, 81.3830°W

Satellite Date Start Highest point End Downlink Frequencies (MHz)
Time Altitude Azimuth
NANOSAT C BR1 23 Mar 02:00:53 02:04:28 27° 289° (WNW) 02:08:00 145.865
EO-79 23 Mar 02:02:51 02:06:16 24° 290° (WNW) 02:09:39 145.935-145.965
SPROUT 23 Mar 02:08:54 02:11:36 16° 266° (W) 02:14:20 437.525
DX 1 23 Mar 02:18:45 02:22:23 26° 263° (W) 02:26:03 434.975-435.025
Gurwin Techsat 1B 23 Mar 02:20:36 02:24:25 20° 94° (E) 02:28:12 435.225
RS-15 23 Mar 02:23:31 02:28:46 14° 264° (W) 02:33:57 29.354- 29.394
POLYITAN 1 23 Mar 02:31:12 02:32:52 12° 294° (WNW) 02:34:31 437.675
Oscar 19 23 Mar 02:38:55 02:44:00 55° 101° (E) 02:49:03 437.125/150
SO-50 23 Mar 02:41:27 02:45:11 26° 248° (WSW) 02:48:55 436.795
BEESAT 23 Mar 03:11:50 03:16:26 50° 73° (ENE) 03:21:03 436.000
AO-7 23 Mar 03:21:01 03:24:19 13° 91° (E) 03:27:36 .
ITUPSAT 1 23 Mar 03:25:03 03:29:48 69° 76° (ENE) 03:34:35 437.325
O/OREOS (USA 219) 23 Mar 03:51:17 03:55:13 27° 63° (ENE) 03:59:06 437.305
Gurwin Techsat 1B 23 Mar 03:59:29 04:04:30 44° 289° (WNW) 04:09:31 435.225
MOZHAYETS 4 23 Mar 04:05:28 04:10:03 73° 76° (ENE) 04:14:38
ITAMSAT 1 23 Mar 04:16:52 04:21:49 42° 99° (E) 04:26:41 435.822/435.867
KKS-1 23 Mar 04:18:06 04:21:22 20° 68° (ENE) 04:24:40 437.445
Oscar 19 23 Mar 04:19:46 04:22:48 16° 296° (WNW) 04:25:51 437.125/150
Tancredo 1 23 Mar 04:21:28 04:22:45 12° 25° (NNE) 04:24:03 437.200
CUBESAT XI-V 23 Mar 04:47:15 04:51:14 30° 71° (ENE) 04:55:14 437.345
BEESAT 23 Mar 04:51:57 04:54:27 14° 267° (W) 04:56:57 436.000
STARS 23 Mar 05:05:13 05:09:00 29° 70° (ENE) 05:12:49 437.465
AO-7 23 Mar 05:09:44 05:18:04 81° 106° (ESE) 05:26:22 .
O/OREOS (USA 219) 23 Mar 05:30:44 05:34:28 25° 258° (WSW) 05:38:11 437.305
ISS 23 Mar 05:38:14 05:41:25 45° 38° (NE) 05:44:37 437.550
KKS-1 23 Mar 05:53:45 05:57:41 31° 262° (W) 06:01:41 437.445
Tancredo 1 23 Mar 05:56:08 05:59:21 83° 46° (NE) 06:02:34 437.200
ITAMSAT 1 23 Mar 05:57:09 06:00:55 21° 294° (WNW) 06:04:42 435.822/435.867
CUBESAT XI-V 23 Mar 06:25:04 06:28:35 22° 265° (W) 06:32:07 437.345
XW-2C 23 Mar 06:31:26 06:32:18 11° 92° (E) 06:33:12 145.795 - 145.815
STARS 23 Mar 06:41:56 06:45:18 21° 265° (W) 06:48:42 437.465
AO-85 23 Mar 06:43:19 06:45:41 15° 50° (NE) 06:48:06 145.980
M-CUBED/EXP-1 PRIME 23 Mar 06:47:26 06:50:56 83° 256° (WSW) 06:54:43 437.505
DOVE 4 23 Mar 07:02:45 07:07:54 48° 99° (E) 07:12:57 437.250
AO-7 23 Mar 07:04:13 07:09:52 21° 304° (NW) 07:15:32 .
ISS 23 Mar 07:15:47 07:17:36 14° 233° (SW) 07:19:25 437.550
STRAND 1 23 Mar 07:16:49 07:21:12 29° 69° (ENE) 07:25:36 437.568
CUTE-I 23 Mar 07:16:53 07:21:56 41° 99° (E) 07:26:55 437.470
LilacSat-2 23 Mar 07:17:56 07:21:36 49° 100° (E) 07:25:14 437.200
XW-2F 23 Mar 07:23:47 07:27:27 54° 100° (E) 07:31:06 145.980 - 146.000
HO-68 23 Mar 07:34:47 07:38:37 15° 92° (E) 07:42:26 435.675
YUBILEINY 23 Mar 07:45:12 07:52:08 27° 83° (E) 07:59:02 435.215
XW-2D 23 Mar 07:47:09 07:50:52 63° 284° (WNW) 07:54:33 145.860 - 145.880
NO-84 23 Mar 07:51:28 07:53:47 22° 126° (SE) 07:56:02 435.350 FM
XW-2B 23 Mar 07:53:01 07:56:41 54° 285° (WNW) 08:00:20 145.730 - 145.750
NUDT-PHONESAT 23 Mar 08:01:06 08:04:42 52° 285° (WNW) 08:08:15 437.300
XW-2C 23 Mar 08:03:10 08:06:40 38° 286° (WNW) 08:10:09 145.795 - 145.815
KAITUO 1B 23 Mar 08:03:19 08:06:54 48° 285° (WNW) 08:10:27 145.475/437.950
BEESAT 3 23 Mar 08:12:15 08:14:13 13° 48° (NE) 08:16:09 437.485
AO-85 23 Mar 08:22:29 08:26:12 40° 245° (WSW) 08:30:04 145.980
CUTE 1.7 + AOD 2 23 Mar 08:29:33 08:33:26 36° 98° (E) 08:37:19 437.475
SEEDS 23 Mar 08:30:38 08:34:00 23° 96° (E) 08:37:22 437.485
DOVE 4 23 Mar 08:41:27 08:45:07 19° 293° (WNW) 08:48:46 437.250
UWE-3 23 Mar 08:43:40 08:45:36 13° 92° (E) 08:47:29 435.000/436.395/437.385
STRAND 1 23 Mar 08:55:50 09:00:15 29° 263° (W) 09:04:42 437.568
CUTE-I 23 Mar 08:57:37 09:01:39 22° 294° (WNW) 09:05:39 437.470
CUBEBUG 2 23 Mar 09:07:10 09:11:24 43° 98° (E) 09:15:29 437.445
XW-2A 23 Mar 09:15:00 09:18:04 33° 286° (WNW) 09:21:08 145.665 - 145.685
HO-68 23 Mar 09:19:48 09:26:59 82° 287° (WNW) 09:34:09 435.675
NO-84 23 Mar 09:29:09 09:31:15 18° 322° (NW) 09:33:21 435.350 FM
ZACube-1 23 Mar 09:31:54 09:35:30 27° 96° (E) 09:39:01 437.345
Oscar 11 23 Mar 09:31:56 09:35:11 21° 95° (E) 09:38:26 .
YUBILEINY 23 Mar 09:39:46 09:48:19 57° 281° (W) 09:56:52 435.215
BEESAT 3 23 Mar 09:48:12 09:52:07 53° 244° (WSW) 09:55:59 437.485
TIGRISAT 23 Mar 09:50:42 09:53:59 19° 68° (ENE) 09:57:16 435.000
BEESAT 2 23 Mar 09:55:00 09:59:03 64° 60° (ENE) 10:03:02 435.950
UNISAT 6 23 Mar 09:59:02 10:02:52 25° 70° (ENE) 10:06:42 437.425
AAUSAT CUBESAT 2 23 Mar 10:01:37 10:05:40 55° 285° (WNW) 10:09:43 437.432
AO-73 23 Mar 10:02:11 10:06:22 57° 100° (E) 10:10:26 145.935
SEEDS 23 Mar 10:06:15 10:09:35 23° 289° (WNW) 10:12:55 437.485
CUTE 1.7 + AOD 2 23 Mar 10:06:23 10:08:57 16° 292° (WNW) 10:11:30 437.475
UWE-3 23 Mar 10:18:10 10:22:17 43° 287° (WNW) 10:26:17 435.000/436.395/437.385
PRISM 23 Mar 10:20:34 10:24:37 85° 261° (W) 10:28:42 437.425
DELFI C3 23 Mar 10:21:03 10:24:07 21° 95° (E) 10:27:11 145.870
JUGNU 23 Mar 10:22:37 10:25:48 15° 171° (S) 10:28:59 437.505
PCSat 23 Mar 10:25:16 10:30:01 32° 109° (ESE) 10:34:48 145.827
FO-29 23 Mar 10:42:01 10:49:35 53° 71° (ENE) 10:56:53 435.910
CUBEBUG 2 23 Mar 10:45:10 10:47:34 15° 294° (WNW) 10:49:56 437.445
Oscar 11 23 Mar 11:07:38 11:11:16 27° 289° (WNW) 11:14:54 .
ZACube-1 23 Mar 11:08:26 11:11:36 21° 291° (WNW) 11:14:43 437.345
HO-68 23 Mar 11:10:20 11:13:35 14° 304° (NW) 11:16:51 435.675
NANOSAT C BR1 23 Mar 11:16:41 11:17:54 11° 65° (ENE) 11:19:07 145.865
EO-79 23 Mar 11:18:02 11:19:59 13° 66° (ENE) 11:21:55 145.935-145.965
TIGRISAT 23 Mar 11:25:59 11:30:20 38° 262° (W) 11:34:43 435.000
AIST 2D 23 Mar 11:29:58 11:32:57 26° 73° (ENE) 11:35:57 435.315
LO-87 23 Mar 11:31:08 11:33:14 15° 94° (E) 11:35:19 145.935 - 145.965
UNISAT 6 23 Mar 11:35:24 11:39:25 28° 264° (W) 11:43:27 437.425
AO-73 23 Mar 11:41:29 11:42:01 10° 295° (WNW) 11:42:32 145.935
POLYITAN 1 23 Mar 11:43:11 11:46:43 25° 70° (ENE) 11:50:15 437.675
QB50P2 23 Mar 11:47:21 11:51:06 30° 72° (ENE) 11:54:53 145.880/145.840
DELFI C3 23 Mar 11:55:38 11:58:48 23° 289° (WNW) 12:01:57 145.870
DUCHIFAT 1 23 Mar 12:05:11 12:09:06 37° 73° (ENE) 12:13:02 145.980
PCSat 23 Mar 12:08:37 12:13:21 30° 305° (NW) 12:18:07 145.827
JUGNU 23 Mar 12:10:18 12:14:03 17° 182° (S) 12:17:50 437.505
RS-15 23 Mar 12:16:12 12:24:40 23° 100° (E) 12:33:18 29.354- 29.394
SRMSAT 23 Mar 12:19:09 12:21:37 13° 168° (SSE) 12:24:04 437.500
FO-29 23 Mar 12:28:02 12:34:40 30° 265° (W) 12:41:11 435.910
BUGSAT 1 23 Mar 12:36:52 12:40:27 28° 71° (ENE) 12:44:04 437.445
VELOX 1 23 Mar 12:44:41 12:47:38 17° 94° (E) 12:50:35 145.980
NANOSAT C BR1 23 Mar 12:48:55 12:53:05 56° 260° (W) 12:57:17 145.865
EO-79 23 Mar 12:51:10 12:55:17 47° 260° (W) 12:59:26 145.935-145.965
ESTCUBE 1 23 Mar 12:51:10 12:55:41 76° 102° (ESE) 13:00:11 437.505/2401.250
LO-87 23 Mar 13:03:34 13:06:41 27° 288° (WNW) 13:09:48 145.935 - 145.965
AIST 2D 23 Mar 13:04:12 13:06:10 14° 266° (W) 13:08:08 435.315
POLYITAN 1 23 Mar 13:19:00 13:22:24 23° 264° (W) 13:25:49 437.675
UKube-1 23 Mar 13:22:54 13:24:30 12° 93° (E) 13:26:05 .
QB50P2 23 Mar 13:23:52 13:26:53 19° 265° (W) 13:29:56 145.880/145.840
Gurwin Techsat 1B 23 Mar 13:38:43 13:42:55 24° 67° (ENE) 13:47:08 435.225
DUCHIFAT 1 23 Mar 13:42:22 13:44:52 15° 267° (W) 13:47:22 145.980
Oscar 19 23 Mar 13:52:42 13:57:42 59° 74° (ENE) 14:02:44 437.125/150
SPROUT 23 Mar 13:55:41 13:59:59 77° 284° (WNW) 14:04:14 437.525
JUGNU 23 Mar 13:59:44 14:02:19 13° 192° (SSW) 14:04:53 437.505
SRMSAT 23 Mar 14:06:14 14:10:01 17° 178° (S) 14:13:48 437.500
DX 1 23 Mar 14:08:55 14:13:18 64° 102° (ESE) 14:17:38 434.975-435.025
BUGSAT 1 23 Mar 14:12:38 14:15:46 20° 265° (W) 14:18:56 437.445
AO-7 23 Mar 14:16:55 14:21:45 17° 53° (NE) 14:26:34 .
50 SAT 23 Mar 14:18:15 14:21:36 43° 285° (WNW) 14:24:56 437.505
VELOX 1 23 Mar 14:20:05 14:24:10 36° 288° (WNW) 14:28:14 145.980
RS-15 23 Mar 14:23:38 14:35:34 84° 299° (WNW) 14:48:01 29.354- 29.394
UKube-1 23 Mar 14:56:34 15:00:45 49° 287° (WNW) 15:04:55 .
SO-50 23 Mar 15:13:09 15:16:18 18° 110° (ESE) 15:19:25 436.795
BEESAT 23 Mar 15:16:11 15:19:06 16° 94° (E) 15:21:59 436.000
Gurwin Techsat 1B 23 Mar 15:17:45 15:22:37 37° 262° (W) 15:27:31 435.225
ITUPSAT 1 23 Mar 15:29:18 15:32:59 22° 95° (E) 15:36:38 437.325
ITAMSAT 1 23 Mar 15:31:42 15:36:43 48° 72° (ENE) 15:41:44 435.822/435.867
Oscar 19 23 Mar 15:34:56 15:37:21 13° 268° (W) 15:39:47 437.125/150
DX 1 23 Mar 15:48:12 15:48:53 10° 296° (WNW) 15:49:33 434.975-435.025
SRMSAT 23 Mar 15:55:09 15:58:27 15° 188° (S) 16:01:45 437.500
NO-84 23 Mar 16:03:43 16:06:59 47° 45° (NE) 16:10:32 435.350 FM
MOZHAYETS 4 23 Mar 16:04:15 16:07:41 21° 95° (E) 16:11:06
AO-7 23 Mar 16:04:57 16:13:17 84° 71° (ENE) 16:21:39 .
RS-15 23 Mar 16:40:24 16:50:10 27° 324° (NW) 17:00:11 29.354- 29.394
SO-50 23 Mar 16:51:59 16:56:25 42° 304° (NW) 17:00:48 436.795
BEESAT 23 Mar 16:52:31 16:57:01 44° 288° (WNW) 17:01:31 436.000
ITUPSAT 1 23 Mar 17:06:35 17:10:48 32° 290° (WNW) 17:15:00 437.325
ITAMSAT 1 23 Mar 17:12:58 17:16:22 17° 266° (W) 17:19:48 435.822/435.867
MOZHAYETS 4 23 Mar 17:40:50 17:44:50 31° 289° (WNW) 17:48:49
NO-84 23 Mar 17:42:31 17:44:20 13° 236° (SW) 17:46:13 435.350 FM
KKS-1 23 Mar 17:46:58 17:51:25 60° 101° (E) 17:55:49 437.445
LilacSat-2 23 Mar 17:57:48 18:00:17 17° 69° (ENE) 18:02:45 437.200
O/OREOS (USA 219) 23 Mar 17:59:57 18:04:20 54° 106° (ESE) 18:08:47 437.305
AO-7 23 Mar 18:01:48 18:06:48 17° 267° (W) 18:11:50 .
XW-2F 23 Mar 18:02:39 18:05:12 17° 70° (ENE) 18:07:44 145.980 - 146.000
DOVE 4 23 Mar 18:05:23 18:09:22 31° 70° (ENE) 18:13:35 437.250
CUBESAT XI-V 23 Mar 18:23:07 18:27:44 71° 284° (WNW) 18:32:22 437.345
XW-2D 23 Mar 18:25:16 18:28:46 36° 74° (ENE) 18:32:17 145.860 - 145.880
XW-2B 23 Mar 18:31:00 18:34:36 41° 74° (ENE) 18:38:12 145.730 - 145.750
M-CUBED/EXP-1 PRIME 23 Mar 18:31:31 18:32:07 10° 96° (E) 18:32:42 437.505
STARS 23 Mar 18:32:54 18:37:22 86° 104° (ESE) 18:41:46 437.465
CUTE-I 23 Mar 18:35:32 18:40:42 51° 72° (ENE) 18:45:54 437.470
NUDT-PHONESAT 23 Mar 18:37:14 18:40:45 39° 74° (ENE) 18:44:16 437.300
KAITUO 1B 23 Mar 18:40:03 18:43:37 43° 75° (ENE) 18:47:12 145.475/437.950
XW-2C 23 Mar 18:40:51 18:44:36 57° 75° (ENE) 18:48:21 145.795 - 145.815
RS-15 23 Mar 19:03:14 19:09:13 14° 0° (N) 19:15:11 29.354- 29.394
PCSat 23 Mar 19:16:48 19:20:04 16° 49° (NE) 19:23:20 145.827
CUTE 1.7 + AOD 2 23 Mar 19:20:01 19:22:53 18° 69° (ENE) 19:25:44 437.475
SEEDS 23 Mar 19:21:19 19:22:41 11° 66° (ENE) 19:24:05 437.485
KKS-1 23 Mar 19:25:57 19:27:24 11° 296° (WNW) 19:28:52 437.445
LilacSat-2 23 Mar 19:30:59 19:34:19 27° 263° (W) 19:37:38 437.200
STRAND 1 23 Mar 19:32:17 19:34:03 12° 91° (E) 19:35:49 437.568
XW-2F 23 Mar 19:35:54 19:39:07 26° 263° (W) 19:42:20 145.980 - 146.000
O/OREOS (USA 219) 23 Mar 19:41:52 19:44:05 13° 303° (WNW) 19:46:18 437.305
XW-2A 23 Mar 19:42:55 19:46:11 40° 74° (ENE) 19:49:27 145.665 - 145.685
DOVE 4 23 Mar 19:43:37 19:47:04 21° 267° (W) 19:50:43 437.250
HO-68 23 Mar 19:44:42 19:51:36 55° 70° (ENE) 19:58:33 435.675
YUBILEINY 23 Mar 19:53:26 20:02:04 64° 81° (E) 20:10:41 435.215
XW-2D 23 Mar 20:01:28 20:03:04 12° 267° (W) 20:04:41 145.860 - 145.880
CUBEBUG 2 23 Mar 20:01:53 20:05:52 27° 70° (ENE) 20:09:52 437.445
M-CUBED/EXP-1 PRIME 23 Mar 20:02:14 20:06:51 71° 289° (WNW) 20:11:29 437.505
XW-2B 23 Mar 20:08:06 20:08:57 11° 268° (W) 20:09:49 145.730 - 145.750
NUDT-PHONESAT 23 Mar 20:13:51 20:14:49 11° 268° (W) 20:15:47 437.300
CUTE-I 23 Mar 20:17:30 20:20:58 17° 267° (W) 20:24:27 437.470
ZACube-1 23 Mar 20:25:10 20:28:05 17° 68° (ENE) 20:30:59 437.345
Oscar 11 23 Mar 20:25:29 20:27:02 12° 66° (ENE) 20:28:36 .
AAUSAT CUBESAT 2 23 Mar 20:48:16 20:52:17 60° 75° (ENE) 20:56:20 437.432
SEEDS 23 Mar 20:53:52 20:57:54 50° 261° (W) 21:01:58 437.485
AO-73 23 Mar 20:54:18 20:58:19 32° 72° (ENE) 21:02:19 145.935
CUTE 1.7 + AOD 2 23 Mar 20:54:42 20:58:27 31° 263° (W) 21:02:13 437.475
AO-85 23 Mar 20:57:31 20:57:57 10° 109° (ESE) 20:58:24 145.980
PCSat 23 Mar 20:58:35 21:04:01 72° 246° (WSW) 21:09:23 145.827
STRAND 1 23 Mar 21:08:33 21:13:38 66° 286° (WNW) 21:18:40 437.568
UWE-3 23 Mar 21:10:53 21:15:34 85° 258° (WSW) 21:20:15 435.000/436.395/437.385
RS-15 23 Mar 21:18:06 21:28:09 28° 36° (NE) 21:37:52 29.354- 29.394
HO-68 23 Mar 21:34:03 21:39:36 24° 265° (W) 21:45:11 435.675
CUBEBUG 2 23 Mar 21:38:23 21:42:21 26° 264° (W) 21:46:21 437.445
YUBILEINY 23 Mar 21:51:41 21:58:04 24° 278° (W) 22:04:28 435.215
Oscar 11 23 Mar 21:58:27 22:02:40 53° 260° (W) 22:06:54 .
ZACube-1 23 Mar 21:59:41 22:04:00 41° 262° (W) 22:08:17 437.345
PRISM 23 Mar 22:05:56 22:08:33 16° 94° (E) 22:11:11 437.425
ISS 23 Mar 22:15:40 22:18:55 77° 136° (SE) 22:22:11 437.550
Tancredo 1 23 Mar 22:30:20 22:33:28 60° 319° (NW) 22:36:37 437.200
AO-73 23 Mar 22:31:08 22:34:32 21° 265° (W) 22:37:55 145.935
AO-85 23 Mar 22:33:26 22:37:55 64° 300° (WNW) 22:42:06 145.980
DELFI C3 23 Mar 22:37:04 22:40:57 62° 260° (W) 22:44:50 145.870
TIGRISAT 23 Mar 23:20:22 23:24:45 56° 100° (E) 23:28:57 435.000
UNISAT 6 23 Mar 23:29:29 23:33:56 79° 102° (ESE) 23:38:16 437.425
RS-15 23 Mar 23:30:17 23:42:37 87° 62° (ENE) 23:54:19 29.354- 29.394
BEESAT 3 23 Mar 23:34:56 23:38:40 49° 116° (ESE) 23:42:31 437.485
LO-87 23 Mar 23:35:57 23:39:29 68° 77° (ENE) 23:43:04 145.935 - 145.965
PRISM 23 Mar 23:40:09 23:43:54 33° 288° (WNW) 23:47:38 437.425
VELOX 1 23 Mar 23:40:55 23:42:07 11° 64° (ENE) 23:43:20 145.980
FO-29 23 Mar 23:41:19 23:47:12 52° 99° (E) 23:52:28 435.910
BEESAT 2 23 Mar 23:44:09 23:47:13 22° 111° (ESE) 23:50:20 435.950
ESTCUBE 1 23 Mar 23:47:31 23:51:47 46° 73° (ENE) 23:56:04 437.505/2401.250
ISS 23 Mar 23:53:57 23:55:44 14° 333° (NNW) 23:57:33 437.550
AIST 2D 24 Mar 00:30:36 00:33:59 48° 99° (E) 00:37:21 435.315
NANOSAT C BR1 24 Mar 00:36:31 00:40:09 27° 97° (E) 00:43:44 145.865
EO-79 24 Mar 00:38:54 00:42:44 32° 98° (E) 00:46:31 145.935-145.965
SPROUT 24 Mar 00:45:39 00:49:49 52° 74° (ENE) 00:54:01 437.525
50 SAT 24 Mar 00:48:43 00:51:53 36° 74° (ENE) 00:55:05 437.505
TIGRISAT 24 Mar 00:59:21 01:00:51 12° 296° (WNW) 01:02:20 435.000
DX 1 24 Mar 01:01:25 01:05:23 36° 72° (ENE) 01:09:23 434.975-435.025
POLYITAN 1 24 Mar 01:05:44 01:09:58 71° 102° (ESE) 01:14:09 437.675
QB50P2 24 Mar 01:10:11 01:14:27 88° 111° (ESE) 01:18:39 145.880/145.840
VELOX 1 24 Mar 01:13:40 01:17:59 60° 259° (W) 01:22:22 145.980
BEESAT 3 24 Mar 01:14:33 01:16:33 13° 312° (NW) 01:18:34 437.485
BEESAT 2 24 Mar 01:21:31 01:24:51 25° 307° (NW) 01:28:13 435.950
SO-50 24 Mar 01:25:50 01:30:20 72° 60° (ENE) 01:34:48 436.795
ESTCUBE 1 24 Mar 01:26:38 01:28:48 13° 268° (W) 01:30:58 437.505/2401.250
DUCHIFAT 1 24 Mar 01:27:15 01:31:28 77° 284° (WNW) 01:35:39 145.980
FO-29 24 Mar 01:27:35 01:31:40 19° 298° (WNW) 01:35:29 435.910
